Seminole, TX

4:08 AM CDT on April 26, 2018 (GMT -0500)
Seminole

Weather History for KGNC - April, 2014

Change the Weather History Date:

Saturday, April 12, 2014

  Actual Average (KHOB) Record (KHOB)
Temperature  
Mean Temperature 70 °F -  
Max Temperature 88 °F 73 °F 93 °F (2018)
Min Temperature 51 °F 44 °F 24 °F (1951)
Cooling Degree Days 4    
Growing Degree Days 20 (Base 50)    
Moisture  
Dew Point 28 °F    
Average Humidity 23    
Maximum Humidity 59    
Minimum Humidity 10    
Precipitation  
Precipitation 0.00 in - - ()
Sea Level Pressure  
Sea Level Pressure 29.85 in    
Wind  
Wind Speed 11 mph (SW)    
Max Wind Speed 34 mph    
Max Gust Speed 51 mph    
Visibility 10 miles    
Events      
Averages and records for this station are not official NWS values.
T = Trace of Precipitation, MM = Missing Value Source: NWS Daily Summary

Daily Weather History Graph

Daily Weather History Graph

Search for Another Location

Airport or City:

Astronomy

Apr. 12, 2014 Rise Set
Actual Time 7:24 AM CDT 8:18 PM CDT
Civil Twilight 6:59 AM CDT 8:43 PM CDT
Nautical Twilight 6:29 AM CDT 9:13 PM CDT
Astronomical Twilight 5:59 AM CDT 9:44 PM CDT
Moon 6:06 PM CDT (4/12) 5:44 AM CDT (4/12)
Length of Visible Light 13h 44m
Length of Day
12h 53m
Waxing Gibbous, 93% of the Moon is Illuminated
Apr 12
Waxing Gibbous
Apr 15
Full
Apr 22
Last Quarter
Apr 29
New
May 6
First Quarter

Hourly Weather History & Observations

Time (CDT) Temp. Dew Point Humidity Pressure Visibility Wind Dir Wind Speed Gust Speed Precip Events Conditions
12:15 AM 62.2 °F 22.5 °F 22% 29.94 in 10.0 mi South 6.9 mph - N/A   Clear
12:35 AM 60.6 °F 22.1 °F 23% 29.93 in 10.0 mi South 6.9 mph - N/A   Clear
12:55 AM 60.3 °F 20.1 °F 21% 29.93 in 10.0 mi South 8.1 mph - N/A   Clear
1:15 AM 61.0 °F 17.8 °F 19% 29.91 in 10.0 mi South 6.9 mph - N/A   Clear
1:35 AM 58.8 °F 16.9 °F 19% 29.91 in 10.0 mi SSW 8.1 mph - N/A   Clear
1:55 AM 59.2 °F 17.4 °F 20% 29.91 in 10.0 mi SSW 8.1 mph - N/A   Clear
2:15 AM 59.4 °F 16.0 °F 18% 29.91 in 10.0 mi West 6.9 mph - N/A   Clear
2:35 AM 58.6 °F 13.8 °F 17% 29.91 in 10.0 mi West 8.1 mph - N/A   Clear
2:55 AM 57.0 °F 14.4 °F 19% 29.91 in 10.0 mi WSW 6.9 mph - N/A   Clear
3:15 AM 55.2 °F 15.1 °F 21% 29.90 in 10.0 mi West 4.6 mph - N/A   Clear
3:35 AM 54.7 °F 15.6 °F 21% 29.89 in 10.0 mi WSW 6.9 mph - N/A   Clear
3:55 AM 53.8 °F 15.4 °F 22% 29.90 in 10.0 mi SW 5.8 mph - N/A   Clear
4:15 AM 55.8 °F 18.9 °F 24% 29.90 in 10.0 mi WSW 9.2 mph - N/A   Clear
4:35 AM 55.8 °F 19.2 °F 24% 29.90 in 10.0 mi WSW 8.1 mph - N/A   Clear
4:55 AM 55.8 °F 21.7 °F 27% 29.90 in 10.0 mi WSW 8.1 mph - N/A   Clear
5:15 AM 56.3 °F 28.2 °F 34% 29.89 in 10.0 mi WSW 9.2 mph - N/A   Clear
5:35 AM 57.2 °F 32.7 °F 40% 29.89 in 10.0 mi WSW 9.2 mph - N/A   Clear
5:55 AM 55.9 °F 32.0 °F 40% 29.89 in 10.0 mi WSW 6.9 mph - N/A   Clear
6:15 AM 55.4 °F 32.9 °F 43% 29.89 in 10.0 mi WSW 4.6 mph - N/A   Clear
6:35 AM 54.3 °F 32.5 °F 44% 29.89 in 10.0 mi Calm Calm - N/A   Clear
6:55 AM 53.1 °F 30.9 °F 43% 29.89 in 10.0 mi SW 3.5 mph - N/A   Clear
7:15 AM 51.6 °F 31.6 °F 46% 29.89 in 10.0 mi Calm Calm - N/A   Clear
7:35 AM 51.8 °F 33.1 °F 49% 29.90 in 10.0 mi WSW 4.6 mph - N/A   Clear
7:55 AM 51.4 °F 35.4 °F 54% 29.90 in 10.0 mi SW 5.8 mph - N/A   Clear
8:15 AM 54.3 °F 40.3 °F 59% 29.91 in 10.0 mi WSW 6.9 mph - N/A   Clear
8:35 AM 56.7 °F 41.9 °F 58% 29.91 in 10.0 mi WSW 5.8 mph - N/A   Clear
8:55 AM 58.6 °F 42.6 °F 55% 29.91 in 10.0 mi West 5.8 mph - N/A   Clear
9:15 AM 62.4 °F 43.0 °F 49% 29.92 in 10.0 mi WSW 8.1 mph - N/A   Clear
9:35 AM 64.9 °F 42.3 °F 44% 29.92 in 10.0 mi WSW 8.1 mph - N/A   Clear
9:55 AM 69.6 °F 38.8 °F 33% 29.93 in 10.0 mi SW 9.2 mph - N/A   Clear
10:15 AM 72.5 °F 35.4 °F 26% 29.92 in 10.0 mi SW 11.5 mph - N/A   Clear
10:35 AM 73.9 °F 35.8 °F 25% 29.92 in 10.0 mi SW 10.4 mph - N/A   Clear
10:55 AM 77.0 °F 33.8 °F 21% 29.92 in 10.0 mi WSW 8.1 mph - N/A   Clear
11:15 AM 78.8 °F 31.3 °F 18% 29.92 in 10.0 mi WSW 9.2 mph - N/A   Clear
11:35 AM 82.2 °F 28.4 °F 14% 29.91 in 10.0 mi WSW 15.0 mph - N/A   Clear
11:55 AM 83.8 °F 27.3 °F 13% 29.91 in 10.0 mi West 13.8 mph 20.7 mph N/A   Clear
12:15 PM 85.6 °F 26.8 °F 12% 29.91 in 10.0 mi West 13.8 mph 23.0 mph N/A   Clear
12:35 PM 85.5 °F 26.1 °F 12% 29.90 in 10.0 mi West 17.3 mph 23.0 mph N/A   Clear
12:55 PM 86.2 °F 27.1 °F 12% 29.89 in 10.0 mi WSW 15.0 mph - N/A   Clear
1:15 PM 86.0 °F 26.4 °F 11% 29.87 in 10.0 mi WSW 11.5 mph 19.6 mph N/A   Clear
1:35 PM 86.4 °F 25.3 °F 11% 29.86 in 10.0 mi SW 16.1 mph 25.3 mph N/A   Clear
1:55 PM 86.9 °F 24.8 °F 10% 29.84 in 10.0 mi WSW 18.4 mph 21.9 mph N/A   Clear
2:15 PM 88.7 °F 25.2 °F 10% 29.83 in 10.0 mi SW 21.9 mph 27.6 mph N/A   Clear
2:35 PM 88.2 °F 25.3 °F 10% 29.82 in 10.0 mi SW 18.4 mph 25.3 mph N/A   Clear
2:55 PM 88.3 °F 24.8 °F 10% 29.81 in 10.0 mi WSW 19.6 mph 26.5 mph N/A   Clear
3:15 PM 87.8 °F 25.3 °F 10% 29.81 in 10.0 mi SW 18.4 mph 26.5 mph N/A   Clear
3:35 PM 86.4 °F 25.0 °F 11% 29.81 in 10.0 mi SW 19.6 mph 28.8 mph N/A   Clear
3:55 PM 85.5 °F 25.2 °F 11% 29.80 in 10.0 mi SW 20.7 mph 28.8 mph N/A   Clear
4:15 PM 85.5 °F 25.9 °F 11% 29.79 in 10.0 mi SW 19.6 mph 26.5 mph N/A   Clear
4:35 PM 84.4 °F 27.0 °F 12% 29.79 in 10.0 mi SW 20.7 mph 28.8 mph N/A   Clear
4:55 PM 84.4 °F 25.2 °F 12% 29.78 in 10.0 mi SW 18.4 mph 27.6 mph N/A   Clear
5:15 PM 84.0 °F 25.5 °F 12% 29.77 in 10.0 mi SW 21.9 mph 27.6 mph N/A   Clear
5:35 PM 83.3 °F 26.1 °F 12% 29.77 in 10.0 mi SW 20.7 mph 27.6 mph N/A   Clear
5:55 PM 82.9 °F 26.6 °F 13% 29.76 in 10.0 mi SW 21.9 mph 25.3 mph N/A   Clear
6:15 PM 82.4 °F 26.4 °F 13% 29.76 in 10.0 mi SW 15.0 mph 20.7 mph N/A   Clear
6:35 PM 81.7 °F 26.2 °F 13% 29.75 in 10.0 mi SW 12.7 mph 19.6 mph N/A   Clear
6:55 PM 81.1 °F 25.9 °F 13% 29.75 in 10.0 mi SW 10.4 mph - N/A   Clear
7:15 PM 79.9 °F 26.4 °F 14% 29.74 in 10.0 mi SW 6.9 mph - N/A   Clear
7:35 PM 78.8 °F 26.8 °F 15% 29.73 in 10.0 mi SSW 5.8 mph - N/A   Clear
7:55 PM 79.7 °F 27.5 °F 15% 29.73 in 10.0 mi SW 13.8 mph 18.4 mph N/A   Clear
8:15 PM 80.1 °F 27.9 °F 15% 29.74 in 10.0 mi WSW 13.8 mph - N/A   Clear
8:35 PM 80.6 °F 28.6 °F 15% 29.74 in 10.0 mi SW 24.2 mph 31.1 mph N/A   Clear
8:55 PM 80.1 °F 29.1 °F 16% 29.73 in 10.0 mi SW 19.6 mph 31.1 mph N/A   Clear
9:15 PM 79.2 °F 30.6 °F 17% 29.75 in 3.0 mi SW 33.4 mph 42.6 mph N/A   Haze
9:35 PM 77.4 °F 32.0 °F 19% 29.74 in 4.0 mi SW 31.1 mph 41.4 mph N/A   Haze
10:15 PM 77.2 °F 33.8 °F 21% 29.76 in 1.2 mi SSW 34.5 mph 50.6 mph N/A   Haze
10:35 PM 75.0 °F 37.2 °F 25% 29.76 in 2.5 mi SSW 31.1 mph 41.4 mph N/A   Haze
10:55 PM 74.5 °F 37.4 °F 26% 29.77 in 7.0 mi SW 24.2 mph 31.1 mph N/A   Scattered Clouds
11:15 PM 75.7 °F 36.0 °F 24% 29.79 in 5.0 mi SW 26.5 mph 34.5 mph N/A   Haze
11:35 PM 75.0 °F 36.5 °F 25% 29.78 in 10.0 mi SW 24.2 mph 32.2 mph N/A   Scattered Clouds
11:55 PM 74.1 °F 36.9 °F 26% 29.77 in 10.0 mi SSW 17.3 mph 24.2 mph N/A   Clear